Portada
METAR-TAF:

METAR-TAF

Aeropuertos :

Helipuerto de Algeciras

Algeciras, España

latitud: 36-07-44N, longitud: 05-26-28W, altitud: 30 m

Observación

El informe se hizo hace 32 minutos, a las 09:30 UTC
Viento 13 kt del este, variando entre noreste y este-sureste
Temperatura 24°C
Humedad 83%
Presión 1019 hPa
Visibilidad 10 km o más
Cielo nuboso a una altura de 2000 ft
Cielo nuboso a una altura de 3600 ft

METAR: LEAG 230930Z AUTO 08013KT 050V110 9999 BKN020 BKN036 24/21 Q1019

Hora: 12:02 (10:02 UTC)


TAF: falta

Observaciones y pronósticos meteorológicos de más de 4000 aeropuertos (mensajes METAR y TAF).

Los puntos amarillos y rojos representan las estaciones disponibles.

Ponga el ratón en el punto deseado para ver el nombre de la estación.

Haga clic para ver las observaciones y los pronósticos meteorológicos.

Para cambiar el mapa : haga clic en los botones verdes con una cruz de color negro para hacer un zoom, en el botón verde con un guión para alejar o en las flechas verdes para mapas adyacentes.


METAR-TAF: